Flag for Grenada Weather past 2 weeks in Saint George's, Grenada

Now
81 °F

Partly sunny.


Feels Like: 88 °F
Forecast: 76 / 79 °F
Wind: 22 mph from East

Location: Point Salines Airport

Current Time: Jun 30, 2015 at 11:05:35 AM

Latest Report: Jun 30, 2015 at 10:00 AM


Visibility: N/A

Pressure: 30.01 "Hg

Humidity: 94%

Dew point: 79 °F

Location of Saint George'sLocation

Historic Weather in Saint George's — Graph

°F

Saint George's temperature yesterday

Maximum temperature yesterday: 86 °F (at 12:00 PM)
Minimum temperature yesterday: 77 °F (at 4:00 AM)
Average temperature yesterday: 82 °F

Past Weeks' High & Low Weather Summary

 TemperatureHumidityPressure
High86 °F (Jun 16, 1:00 PM)100% (Jun 15, 12:00 PM)30.07 "Hg (Jun 15, 12:00 PM)
Low77 °F (Jun 15, 12:00 PM)66% (Jun 20, 1:00 PM)29.92 "Hg (Jun 15, 5:00 PM)
Average82 °F83%30.00 "Hg
* Reported Jun 15 9:00 AM — Jun 30 9:00 AM, Saint George's, Weather by CustomWeather, © 2015

Note: Actual official high and low records may vary slightly from our data, if they occured in-between our weather recording intervals... More about our weather records

Advertising

Saint George's weather history for previous 24 hours

 ConditionsComfort  
Time TempWeatherWind HumidityBarometerVisibility
9:00 AM
Tue, Jun 30
81 °FBroken clouds.18 mph94%30.01 "HgN/A
8:00 AM82 °FScattered clouds.12 mph84%29.98 "HgN/A
7:00 AM81 °FScattered clouds.17 mph84%29.98 "HgN/A
6:00 AM79 °FPartly sunny.13 mph94%29.95 "HgN/A
5:00 AM79 °FPassing clouds.12 mph89%29.95 "HgN/A
4:00 AM77 °FScattered showers. Passing clouds.9 mph94%29.95 "Hg5 mi
3:00 AM81 °FPassing clouds.12 mph84%29.95 "HgN/A
1:00 AM81 °FPassing clouds.12 mph84%29.98 "HgN/A
11:00 PM
Mon, Jun 29
81 °FPassing clouds.17 mph84%30.01 "HgN/A
10:00 PM81 °FPassing clouds.15 mph79%30.01 "HgN/A
9:00 PM81 °FPassing clouds.16 mph79%29.98 "HgN/A
8:00 PM81 °FPassing clouds.16 mph84%29.98 "HgN/A
7:00 PM81 °FPassing clouds.16 mph84%29.95 "HgN/A
6:00 PM82 °FPassing clouds.17 mph79%29.95 "HgN/A
5:00 PM82 °FPassing clouds.20 mph79%29.95 "HgN/A
4:00 PM84 °FScattered clouds.16 mph74%29.95 "HgN/A
3:00 PM84 °FScattered clouds.20 mph74%29.95 "HgN/A
2:00 PM86 °FScattered clouds.21 mph66%29.95 "HgN/A
1:00 PM86 °FPassing clouds.24 mph66%29.98 "HgN/A
12:00 PM86 °FPassing clouds.23 mph66%30.01 "HgN/A
11:00 AM84 °FScattered clouds.21 mph74%30.01 "HgN/A
Weather by CustomWeather, © 2015

See weather overviewHow to use our weather pages